Regional Weather Roundup
Issued by NWS

Home | Current Version | Previous Version | Graphics & Text | Print | Product List | Glossary Off
Versions: 1 2 3 4 5 6 7 8 9 10 11 12 13 14 15 16 17 18 19 20 21 22 23 24 25 26 27 28 29 30 31 32 33 34 35 36 37 38 39 40 41 42 43 44 45 46 47 48 49 50

032
ASUS43 KMKX 190800
RWRWI

WISCONSIN REGIONAL WEATHER ROUNDUP
NATIONAL WEATHER SERVICE MILWAUKEE/SULLIVAN WI
200 AM CST THU JAN 19 2017

NOTE: "FAIR" INDICATES FEW OR NO CLOUDS BELOW 12,000 FEET WITH NO
SIGNIFICANT WEATHER AND/OR OBSTRUCTIONS TO VISIBILITY.

WIZ001-002-006>008-014>016-023>028-190900-
NORTHWEST WISCONSIN

CITY           SKY/WX    TMP DP  RH WIND       PRES   REMARKS
SUPERIOR ARPT  CLOUDY    29  28  96 SW3       29.79F FOG
ASHLAND        CLOUDY    32  30  92 S6        29.82S FOG     WCI  26
HAYWARD        CLOUDY    29  27  92 S7        29.83S FOG     WCI  22
SIREN          CLOUDY    30  30  99 S6        29.81S FOG     WCI  24
CUMBERLAND     FOG       27  27 100 SE3       29.83S VSB 1/4
RICE LAKE      FOG       28  27  99 SE5       29.86S VSB<1/4 WCI  22
CHETEK         NOT AVBL
LADYSMITH      CLOUDY    30  29  98 S6        29.88S FOG     WCI  24
EAU CLAIRE     CLOUDY    27  27 100 SE7       29.87S FOG     WCI  19
MENOMONIE      FOG       26  25  97 MISG      29.87S VSB 1/4
NEW RICHMOND   CLOUDY    31  31 100 S8        29.83S WCI  24
OSCEOLA        CLOUDY    32  32 100 S6        29.85S WCI  26
$$

WIZ003>005-009-010-017-018-190900-
NORTH CENTRAL WISCONSIN

CITY           SKY/WX    TMP DP  RH WIND       PRES   REMARKS
MANITOWISH WTR CLOUDY    31  31 100 SW6       29.84R FOG     WCI  25
ARBOR VITAE    CLOUDY    32  30  94 SW5       29.85R FOG     WCI  27
WOODRUFF       CLOUDY    32  30  94 SW5       29.85R FOG     WCI  27
RHINELANDER    FOG       31  30  96 SW8       29.86S VSB 1/2 WCI  23
EAGLE RIVER    CLOUDY    31  31 100 SW8       29.84S FOG     WCI  24
LAND O LAKES   CLOUDY    29  28  99 SW3       29.86R FOG
PHILLIPS       CLOUDY    29  29 100 S5        29.85S FOG     WCI  24
TOMAHAWK       CLOUDY    29  28  96 CALM      29.88R FOG
MEDFORD        FOG       28  28  99 SW9       29.87S VSB 1/4 WCI  20
MERRILL        FOG       29  29 100 SW3         N/A  VSB 1/2
$$

WIZ029-030-035-036-043>047-190900-
CENTRAL WISCONSIN

CITY           SKY/WX    TMP DP  RH WIND       PRES   REMARKS
WAUSAU         CLOUDY    29  29 100 SW6       29.89S FOG     WCI  23
MOSINEE        CLOUDY    30  30 100 SW6       29.91S FOG     WCI  24
MARSHFIELD     FOG       30  29  96 SW9       29.89S VSB 1/4 WCI  22
STEVENS POINT  FOG       28  28 100 SW6       29.92S VSB 1/2 WCI  22
WAUPACA        CLOUDY    33  32  95 SW9       29.94S FOG     WCI  25
WAUTOMA        CLOUDY    33  31  92 S7        29.96R FOG     WCI  27
WISC RAPIDS    FOG       31  31 100 SW8       29.93S VSB 1   WCI  23
CAMP DOUGLAS   CLOUDY    34  32  93 S5        29.94R WCI  30
$$

WIZ011>013-019>022-031-037>040-048>050-190900-
NORTHEAST WISCONSIN

CITY           SKY/WX    TMP DP  RH WIND       PRES   REMARKS
ANTIGO         CLOUDY    28  28 100 W6        29.89R FOG     WCI  21
SHAWANO        CLOUDY    32  29  91 CALM      29.93S FOG
OCONTO         CLOUDY    30  28  93 SW5       29.94R WCI  25
STURGEON BAY   CLOUDY    31  29  92 SW8       29.94R FOG     WCI  23
GREEN BAY      CLOUDY    34  32  92 SW7       29.95R FOG     WCI  28
MANITOWOC      CLOUDY    28  27  93 CALM      29.97S FOG
APPLETON       CLOUDY    32  32 100 SW10      29.93R FOG     WCI  24
CLINTONVILLE   CLOUDY    32  30  93 SW9       29.93S FOG     WCI  24
OSHKOSH        CLOUDY    32  30  92 SW9       29.95S FOG     WCI  24
$$

WIZ032>034-041-042-053>061-190900-
SOUTHWEST WISCONSIN

CITY           SKY/WX    TMP DP  RH WIND       PRES   REMARKS
LA CROSSE      CLOUDY    37  34  89 S15       29.94R WCI  28
SPARTA         CLOUDY    34  33  96 S3        29.94R
VIROQUA        CLOUDY    34  34 100 S8        29.93S WCI  27
BOSCOBEL       CLOUDY    36  33  89 S3        29.98S FOG
PRAIRIE DU CHI PTCLDY    34  32  93 CALM      29.96S FOG
PLATTEVILLE    CLOUDY    33  33 100 S7        29.98R VSB 1/4 WCI  27
$$

WIZ056-057-062-063-064-067-068-190900-
SOUTH CENTRAL WISCONSIN

CITY           SKY/WX    TMP DP  RH WIND       PRES   REMARKS
REEDSBURG      CLOUDY    33  33 100 SW8       29.96R FOG     WCI  26
BARABOO/DELLS  CLOUDY    33  33  99 SW9       29.95R FOG     WCI  26
LONE ROCK      NOT AVBL
MINERAL POINT  FOG       34  34 100 S9        29.97R VSB 1/4 WCI  26
MADISON        CLOUDY    33  33 100 S6        29.99F FOG     WCI  28
MIDDLETON      CLOUDY    35  35 100 SW5       29.98F WCI  31
WATERTOWN      CLOUDY    34  34 100 SW10G17   29.99R FOG     WCI  26
MONROE         FOG       32  32 100 S12       29.98S VSB 1/4 WCI  23
JANESVILLE     CLEAR     32  32 100 CALM      30.01R FOG
$$

WIZ051-052-058>065-066-070>072-190900-
SOUTHEAST WISCONSIN

CITY           SKY/WX    TMP DP  RH WIND       PRES   REMARKS
MILWAUKEE      CLOUDY    35  33  92 SW9       30.00S FOG     WCI  28
WAUKESHA       CLOUDY    32  32 100 SW10      30.00S FOG     WCI  24
MILWAUKEE/TIMM CLOUDY    32  32 100 SW9       30.01R FOG     WCI  24
RACINE         CLOUDY    33  31  92 SW8G16    30.03S FOG     WCI  26
KENOSHA        CLOUDY    33  32  96 SW10      30.02S FOG     WCI  25
FOND DU LAC    CLOUDY    33  30  88 SW9       29.97R FOG     WCI  25
SHEBOYGAN      CLOUDY    32  29  88 SW9       29.96R FOG     WCI  24
WEST BEND      CLOUDY    32  32 100 SW13      29.98R FOG     WCI  22
JUNEAU         FOG       32  32 100 S12       29.99R VSB<1/4 WCI  23
$$

LSZ147-162-190900-
LAKE SUPERIOR

STATION/POSITION TIME  TEMP    WIND        PRES    WAVE
                       AIR SEA DIR/SP/G            HT/PER
                 (UTC) (F)     (DEG/KT/KT) (MB)    (FT/S)
DEVILS ISLAND    0700   34     160/  5/  7 1009.8F
PORT WING        0740   26     170/  4/  4 1009.5S
SAXON HARBOR     0740   33     180/  3/  6 1009.8S
$$

LMZ867-665-643>646-190900-
LAKE MICHIGAN

STATION/POSITION TIME  TEMP    WIND        PRES    WAVE
                       AIR SEA DIR/SP/G            HT/PER
                 (UTC) (F)     (DEG/KT/KT) (MB)    (FT/S)
NORTHPORT PIER   0740   33     210/  4/  9 1013.2R
SISTER BAY       0650   34     220/ 13/ 16   N/A
KEWAUNEE LAKESHO 0730   32     210/  4/  6 1013.9S
SHEBOYGAN LAKESH 0700   33     230/ 11/ 12 1014.9F
PORT WASHINGTON  0740   34     230/  7/ 12 1016.6S
MILWAUKEE LAKESH 0730   34     250/  3/  5   N/A
KENOSHA   LAKESH 0700   34     230/  5/ 11 1016.9
$$

TC  - TEMPERATURE IN CELSIUS
VSB - VISIBILITY IN STATUTE MILES
WCI - WIND CHILL INDEX
HX  - HEAT INDEX





USA.gov is the U.S. government's official web portal to all federal, state and local government web resources and services.